Gwinner, ND

4:31 PM CST on November 11, 2019 (GMT -0600)
Gwinner-melroe

Weather History for KGWR - October, 2019

Change the Weather History Date:

Tuesday, October 22, 2019

  Actual Average (KP67) Record (KP67)
Temperature  
Mean Temperature 39 °F -  
Max Temperature 46 °F 50 °F 45 °F (1997)
Min Temperature 32 °F 30 °F 24 °F (1996)
Degree Days  
Heating Degree Days 26    
Moisture  
Dew Point 31 °F    
Average Humidity 75    
Maximum Humidity 93    
Minimum Humidity 53    
Precipitation  
Precipitation 0.00 in - - ()
Sea Level Pressure  
Sea Level Pressure 29.71 in    
Wind  
Wind Speed 23 mph (NW)    
Max Wind Speed 30 mph    
Max Gust Speed 39 mph    
Visibility 10 miles    
Events      
Averages and records for this station are not official NWS values.
T = Trace of Precipitation, MM = Missing Value Source: NWS Daily Summary

Daily Weather History Graph

Daily Weather History Graph

Search for Another Location

Airport or City:

Astronomy

Oct. 22, 2019 Rise Set
Actual Time 7:57 AM CDT 6:32 PM CDT
Civil Twilight 7:26 AM CDT 7:02 PM CDT
Nautical Twilight 6:51 AM CDT 7:37 PM CDT
Astronomical Twilight 6:16 AM CDT 8:12 PM CDT
Moon 12:40 AM CDT (10/22) 4:08 PM CDT (10/22)
Length of Visible Light 11h 36m
Length of Day
10h 35m
Last Quarter, 37% of the Moon is Illuminated
Oct 22
Last Quarter
Oct 27
New
Nov 4
First Quarter
Nov 12
Full
Nov 19
Last Quarter

Hourly Weather History & Observations

Time (CDT) Temp. Windchill Dew Point Humidity Pressure Visibility Wind Dir Wind Speed Gust Speed Precip Events Conditions
12:15 AM 39.2 °F 28.7 °F 37.4 °F 93% 29.66 in 10.0 mi NNW 23.0 mph 34.5 mph N/A   Overcast
12:35 AM 39.2 °F 28.5 °F 37.4 °F 93% 29.66 in 10.0 mi NNW 24.2 mph 36.8 mph N/A   Overcast
12:55 AM 39.2 °F 29.3 °F 37.4 °F 93% 29.65 in 10.0 mi NW 20.7 mph 33.4 mph N/A   Overcast
1:15 AM 39.2 °F 28.0 °F 35.6 °F 87% 29.65 in 10.0 mi NNW 26.5 mph 35.7 mph N/A   Overcast
1:35 AM 39.2 °F 27.6 °F 35.6 °F 87% 29.65 in 10.0 mi NNW 28.8 mph 38.0 mph N/A   Overcast
1:55 AM 39.2 °F 28.5 °F 35.6 °F 87% 29.66 in 10.0 mi NNW 24.2 mph 36.8 mph N/A   Overcast
2:15 AM 37.4 °F 25.9 °F 35.6 °F 93% 29.66 in 10.0 mi NNW 25.3 mph 35.7 mph N/A   Overcast
2:35 AM 37.4 °F 25.4 °F 35.6 °F 93% 29.67 in 5.0 mi NNW 27.6 mph 34.5 mph N/A   Mostly Cloudy
2:55 AM 37.4 °F 25.4 °F 35.6 °F 93% 29.67 in 7.0 mi NNW 27.6 mph 38.0 mph N/A   Overcast
3:15 AM 35.6 °F 24.0 °F 33.8 °F 93% 29.66 in 10.0 mi NW 23.0 mph 36.8 mph N/A   Overcast
3:35 AM 35.6 °F 23.7 °F 33.8 °F 93% 29.66 in 10.0 mi NW 24.2 mph 33.4 mph N/A   Overcast
3:55 AM 35.6 °F 23.7 °F 33.8 °F 93% 29.66 in 10.0 mi NW 24.2 mph 32.2 mph N/A   Overcast
4:15 AM 35.6 °F 23.4 °F 32.0 °F 87% 29.66 in 10.0 mi NW 25.3 mph 33.4 mph N/A   Overcast
4:35 AM 35.6 °F 22.7 °F 32.0 °F 87% 29.67 in 10.0 mi NW 28.8 mph 36.8 mph N/A   Overcast
4:55 AM 35.6 °F 22.7 °F 32.0 °F 87% 29.67 in 10.0 mi NW 28.8 mph - N/A   Overcast
5:15 AM 35.6 °F 23.4 °F 30.2 °F 81% 29.67 in 10.0 mi NW 25.3 mph 32.2 mph N/A   Overcast
5:35 AM 35.6 °F 23.0 °F 30.2 °F 81% 29.67 in 10.0 mi NW 27.6 mph 35.7 mph N/A   Mostly Cloudy
5:55 AM 35.6 °F 23.2 °F 30.2 °F 81% 29.68 in 10.0 mi NW 26.5 mph 33.4 mph N/A   Scattered Clouds
6:15 AM 35.6 °F 23.2 °F 30.2 °F 81% 29.68 in 10.0 mi NW 26.5 mph 34.5 mph N/A   Partly Cloudy
6:35 AM 33.8 °F 21.9 °F 30.2 °F 87% 29.69 in 10.0 mi NW 21.9 mph 31.1 mph N/A   Clear
6:55 AM 33.8 °F 20.3 °F 30.2 °F 87% 29.69 in 10.0 mi NW 28.8 mph 34.5 mph N/A   Clear
7:15 AM 33.8 °F 21.3 °F 28.4 °F 81% 29.69 in 10.0 mi NW 24.2 mph 32.2 mph N/A   Clear
7:35 AM 33.8 °F 21.0 °F 28.4 °F 81% 29.69 in 10.0 mi NW 25.3 mph 38.0 mph N/A   Clear
7:55 AM 33.8 °F 21.9 °F 28.4 °F 81% 29.70 in 10.0 mi NW 21.9 mph 34.5 mph N/A   Clear
8:15 AM 33.8 °F 21.9 °F 28.4 °F 81% 29.70 in 10.0 mi NW 21.9 mph 34.5 mph N/A   Clear
8:35 AM 33.8 °F 21.9 °F 28.4 °F 81% 29.70 in 10.0 mi NW 21.9 mph 31.1 mph N/A   Clear
8:55 AM 35.6 °F 23.7 °F 28.4 °F 75% 29.71 in 10.0 mi NW 24.2 mph 34.5 mph N/A   Clear
9:15 AM 35.6 °F 23.4 °F 28.4 °F 75% 29.71 in 10.0 mi NW 25.3 mph 35.7 mph N/A   Clear
9:35 AM 35.6 °F 24.0 °F 28.4 °F 75% 29.72 in 10.0 mi NW 23.0 mph 33.4 mph N/A   Clear
9:55 AM 35.6 °F 23.2 °F 28.4 °F 75% 29.72 in 10.0 mi NW 26.5 mph - N/A   Clear
10:15 AM 37.4 °F 25.2 °F 30.2 °F 75% 29.72 in 10.0 mi NW 28.8 mph - N/A   Clear
10:55 AM 39.2 °F 27.8 °F 30.2 °F 70% 29.72 in 10.0 mi NW 27.6 mph 35.7 mph N/A   Clear
11:15 AM 41.0 °F 30.7 °F 28.4 °F 61% 29.72 in 10.0 mi NW 25.3 mph 34.5 mph N/A   Clear
11:35 AM 41.0 °F 30.7 °F 30.2 °F 65% 29.72 in 10.0 mi NW 25.3 mph 33.4 mph N/A   Clear
11:55 AM 42.8 °F 32.3 °F 28.4 °F 57% 29.72 in 10.0 mi NW 29.9 mph 36.8 mph N/A   Clear
12:35 PM 42.8 °F 33.5 °F 28.4 °F 57% 29.72 in 10.0 mi NW 23.0 mph 34.5 mph N/A   Clear
12:55 PM 44.6 °F 36.6 °F 30.2 °F 57% 29.72 in 10.0 mi NW 19.6 mph 34.5 mph N/A   Clear
1:15 PM 44.6 °F 35.1 °F 28.4 °F 53% 29.72 in 10.0 mi NW 27.6 mph 36.8 mph N/A   Clear
1:35 PM 44.6 °F 34.9 °F 28.4 °F 53% 29.71 in 10.0 mi NW 28.8 mph 39.1 mph N/A   Clear
1:55 PM 44.6 °F 35.3 °F 28.4 °F 53% 29.71 in 10.0 mi NW 26.5 mph 36.8 mph N/A   Clear
2:15 PM 44.6 °F 35.3 °F 28.4 °F 53% 29.71 in 10.0 mi NW 26.5 mph 34.5 mph N/A   Clear
2:35 PM 44.6 °F 35.3 °F 28.4 °F 53% 29.71 in 10.0 mi NW 26.5 mph 32.2 mph N/A   Clear
2:55 PM 44.6 °F 35.5 °F 28.4 °F 53% 29.71 in 10.0 mi NW 25.3 mph 35.7 mph N/A   Clear
3:15 PM 44.6 °F 35.9 °F 28.4 °F 53% 29.71 in 10.0 mi NW 23.0 mph 32.2 mph N/A   Clear
3:35 PM 44.6 °F 35.5 °F 28.4 °F 53% 29.71 in 10.0 mi WNW 25.3 mph 32.2 mph N/A   Clear
3:55 PM 46.4 °F 39.0 °F 30.2 °F 53% 29.72 in 10.0 mi NW 19.6 mph 32.2 mph N/A   Clear
4:15 PM 44.6 °F 36.4 °F 28.4 °F 53% 29.72 in 10.0 mi NW 20.7 mph 29.9 mph N/A   Clear
4:35 PM 44.6 °F 35.3 °F 28.4 °F 53% 29.72 in 10.0 mi NW 26.5 mph 33.4 mph N/A   Clear
4:55 PM 44.6 °F 36.9 °F 28.4 °F 53% 29.73 in 10.0 mi NW 18.4 mph 27.6 mph N/A   Clear
5:15 PM 44.6 °F 36.6 °F 28.4 °F 53% 29.74 in 10.0 mi NW 19.6 mph 27.6 mph N/A   Clear
5:35 PM 44.6 °F 37.4 °F 30.2 °F 57% 29.74 in 10.0 mi NW 16.1 mph 23.0 mph N/A   Clear
5:55 PM 42.8 °F 35.8 °F 30.2 °F 61% 29.74 in 10.0 mi NW 13.8 mph 24.2 mph N/A   Clear
6:15 PM 41.0 °F 34.7 °F 30.2 °F 65% 29.75 in 10.0 mi NW 10.4 mph 19.6 mph N/A   Clear
6:35 PM 41.0 °F 33.5 °F 30.2 °F 65% 29.75 in 10.0 mi WNW 13.8 mph - N/A   Clear
6:55 PM 39.2 °F 32.0 °F 30.2 °F 70% 29.76 in 10.0 mi WNW 11.5 mph - N/A   Clear
7:15 PM 39.2 °F 32.5 °F 30.2 °F 70% 29.76 in 10.0 mi WNW 10.4 mph - N/A   Clear
7:35 PM 37.4 °F 30.8 °F 30.2 °F 75% 29.76 in 10.0 mi WNW 9.2 mph - N/A   Clear
7:55 PM 37.4 °F 30.8 °F 30.2 °F 75% 29.76 in 10.0 mi WNW 9.2 mph - N/A   Clear
8:15 PM 37.4 °F 29.8 °F 30.2 °F 75% 29.77 in 10.0 mi WNW 11.5 mph - N/A   Clear
8:35 PM 35.6 °F 29.2 °F 30.2 °F 81% 29.77 in 10.0 mi WNW 8.1 mph - N/A   Clear
8:55 PM 35.6 °F 28.0 °F 30.2 °F 81% 29.77 in 10.0 mi WNW 10.4 mph - N/A   Clear
9:15 PM 33.8 °F 26.4 °F 30.2 °F 87% 29.77 in 10.0 mi WNW 9.2 mph - N/A   Clear
9:35 PM 35.6 °F 28.6 °F 30.2 °F 81% 29.77 in 10.0 mi WNW 9.2 mph - N/A   Clear
9:55 PM 33.8 °F 27.7 °F 30.2 °F 87% 29.77 in 10.0 mi WNW 6.9 mph 12.7 mph N/A   Clear
10:15 PM 33.8 °F 27.7 °F 30.2 °F 87% 29.77 in 10.0 mi WNW 6.9 mph - N/A   Clear
10:35 PM 32.0 °F 24.2 °F 30.2 °F 93% 29.77 in 10.0 mi West 9.2 mph - N/A   Clear
10:55 PM 32.0 °F 23.0 °F 30.2 °F 93% 29.78 in 10.0 mi West 11.5 mph - N/A   Clear
11:15 PM 32.0 °F 24.2 °F 30.2 °F 93% 29.77 in 10.0 mi NW 9.2 mph - N/A   Clear
11:35 PM 32.0 °F 25.6 °F 30.2 °F 93% 29.76 in 10.0 mi WNW 6.9 mph - N/A   Clear
11:55 PM 33.8 °F 27.0 °F 30.2 °F 87% 29.77 in 10.0 mi NW 8.1 mph - N/A   Clear